This is the latest recevied weather packets stored in our database for station/object IA5FYI-13. If no packets are shown the sender has not sent any weather packets the latest 1 day(s).
| Time | Temp. | Humidity | Pressure | Rain* | Wind** | Luminosity | Snow |
|---|---|---|---|---|---|---|---|
| 1777985709 | 20° C | 86% | 1011.2 hPa | 0 mm | 3.13 m/s, 153° | - | - |
| 1777985413 | 20° C | 85% | 1011.5 hPa | 0 mm | 1.34 m/s, 140° | - | - |
| 1777985112 | 18.89° C | 85% | 1011.2 hPa | 0 mm | 2.68 m/s, 165° | - | - |
| 1777984813 | 20° C | 85% | 1011.5 hPa | 0 mm | 4.92 m/s, 196° | - | - |
| 1777984509 | 20° C | 84% | 1011.2 hPa | 0 mm | 2.24 m/s, 139° | - | - |
| 1777984224 | 20° C | 85% | 1011.5 hPa | 0 mm | 2.68 m/s, 147° | - | - |
| 1777983910 | 20° C | 85% | 1011.5 hPa | 0 mm | 3.58 m/s, 134° | - | - |
| 1777983613 | 20° C | 85% | 1011.2 hPa | 0 mm | 4.02 m/s, 154° | - | - |
| 1777983313 | 20° C | 85% | 1011.5 hPa | 0 mm | 4.92 m/s, 155° | - | - |
| 1777982709 | 20° C | 85% | 1011.5 hPa | 0 mm | 2.68 m/s, 151° | - | - |
| 1777982432 | 20° C | 85% | 1011.5 hPa | 0 mm | 3.13 m/s, 162° | - | - |
| 1777982109 | 20° C | 85% | 1011.5 hPa | 0 mm | 3.58 m/s, 119° | - | - |
| 1777981812 | 20° C | 85% | 1011.2 hPa | 0 mm | 3.58 m/s, 281° | - | - |
| 1777981513 | 20° C | 85% | 1011.5 hPa | 0 mm | 2.24 m/s, 66° | - | - |
| 1777981213 | 20° C | 84% | 1011.5 hPa | 0 mm | 4.02 m/s, 147° | - | - |
| 1777980909 | 21.11° C | 83% | 1011.5 hPa | 0 mm | 3.13 m/s, 146° | - | - |
| 1777980624 | 21.11° C | 83% | 1011.5 hPa | 0 mm | 2.68 m/s, 156° | - | - |
| 1777980309 | 20° C | 83% | 1011.5 hPa | 0 mm | 5.36 m/s, 180° | - | - |
| 1777980012 | 21.11° C | 83% | 1011.5 hPa | 0 mm | 3.13 m/s, 253° | - | - |
| 1777979713 | 21.11° C | 83% | 1011.5 hPa | 0 mm | 2.68 m/s, 127° | - | - |
| 1777979412 | 21.11° C | 83% | 1011.2 hPa | 0 mm | 4.92 m/s, 123° | - | - |
| 1777979109 | 21.11° C | 84% | 1011.5 hPa | 0 mm | 2.68 m/s, 262° | - | - |
| 1777978833 | 20° C | 83% | 1011.5 hPa | 0 mm | 4.47 m/s, 135° | - | - |
| 1777978509 | 20° C | 85% | 1011.5 hPa | 0 mm | 2.68 m/s, 171° | - | - |
| 1777978213 | 20° C | 85% | 1011.5 hPa | 0 mm | 3.58 m/s, 167° | - | - |
* Rain latest hour (hover to see other rain measurements)
** Current wind speed in m/s (hover to see current wind gust speed)